{"data":{"norad_id":64446,"intl_designator":"2025-130J","name":"STARLINK-34402","alt_names":[],"object_type":"PAYLOAD","status":"ACTIVE","operator":null,"country":"US","launch_date":"2025-06-18","launch_site_code":"AFETR","launch_vehicle":null,"mission":null,"orbit_class":"UNKNOWN","rcs_meters":null,"size_class":null,"mass_kg":null,"dimensions":null,"purposes":["comms"],"wikipedia_slug":null,"has_3d_model":false,"image_url":null,"decayed_at":null,"tle_current":{"epoch":"2026-05-25T03:32:19.447584Z","epoch_age_seconds":58234,"freshness":"FRESH","line1":"1 64446U 25130J   26145.14744731  .00009445  00000+0  33054-3 0  9993","line2":"2 64446  53.1573  93.0754 0001152  91.7199 268.3933 15.30207269 52414","mean_motion":15.30207269,"eccentricity":0.0001152,"inclination_deg":53.1573,"raan_deg":93.0754,"arg_perigee_deg":91.7199,"mean_anomaly_deg":268.3933,"bstar":0.00033054,"rev_number":5241,"period_min":94.104898674351,"perigee_km":474.40386192337,"apogee_km":475.9828692396,"semimajor_km":6853.3303655815,"source":"CELESTRAK","updated_at":"2026-05-25T13:38:20.448494Z"}}}